Time,TemperatureF,DewpointF,PressureIn,WindDirection,WindDirectionDegrees,WindSpeedMPH,WindSpeedGustMPH,Humidity,HourlyPrecipIn,Conditions,Clouds,dailyrainin,SoftwareType,DateUTC
2013-07-16 00:02:00,73.7,71.0,30.23,West,281,1.0,1.0,92,0.00,,,0.00,weatherlink.com 1.10,2013-07-16 04:02:00,
2013-07-16 00:17:00,73.7,71.0,30.23,WSW,245,0.0,1.0,91,0.00,,,0.00,weatherlink.com 1.10,2013-07-16 04:17:00,
2013-07-16 00:32:00,73.4,71.0,30.23,WSW,252,1.0,1.0,91,0.00,,,0.00,weatherlink.com 1.10,2013-07-16 04:32:00,
2013-07-16 00:47:00,73.1,71.0,30.22,West,267,0.0,1.0,92,0.00,,,0.00,weatherlink.com 1.10,2013-07-16 04:47:00,
2013-07-16 01:02:00,72.9,71.0,30.22,West,280,0.0,1.0,92,0.00,,,0.00,weatherlink.com 1.10,2013-07-16 05:02:00,
2013-07-16 01:17:00,72.6,71.0,30.23,SSE,162,0.0,0.0,93,0.00,,,0.00,weatherlink.com 1.10,2013-07-16 05:17:00,
2013-07-16 01:32:00,72.3,71.0,30.22,ESE,107,0.0,1.0,94,0.00,,,0.00,weatherlink.com 1.10,2013-07-16 05:32:00,
2013-07-16 01:47:00,71.7,70.0,30.23,ESE,107,0.0,0.0,95,0.00,,,0.00,weatherlink.com 1.10,2013-07-16 05:47:00,
2013-07-16 02:02:00,71.5,70.0,30.22,ESE,107,0.0,0.0,95,0.00,,,0.00,weatherlink.com 1.10,2013-07-16 06:02:00,
2013-07-16 02:17:00,71.3,70.0,30.23,NNE,23,0.0,1.0,95,0.00,,,0.00,weatherlink.com 1.10,2013-07-16 06:17:00,
2013-07-16 02:32:00,70.8,69.0,30.22,West,266,0.0,1.0,95,0.00,,,0.00,weatherlink.com 1.10,2013-07-16 06:32:00,
2013-07-16 02:47:00,70.5,69.0,30.22,West,259,0.0,1.0,95,0.00,,,0.00,weatherlink.com 1.10,2013-07-16 06:47:00,
2013-07-16 03:02:00,70.4,69.0,30.22,WSW,252,0.0,0.0,95,0.00,,,0.00,weatherlink.com 1.10,2013-07-16 07:02:00,
2013-07-16 03:17:00,70.3,69.0,30.22,North,9,0.0,1.0,96,0.00,,,0.00,weatherlink.com 1.10,2013-07-16 07:17:00,
2013-07-16 03:32:00,70.1,69.0,30.22,NW,308,0.0,1.0,96,0.00,,,0.00,weatherlink.com 1.10,2013-07-16 07:32:00,
2013-07-16 03:47:00,70.2,69.0,30.23,NNE,26,0.0,1.0,96,0.00,,,0.00,weatherlink.com 1.10,2013-07-16 07:47:00,
2013-07-16 04:02:00,70.0,69.0,30.22,WSW,257,0.0,1.0,96,0.00,,,0.00,weatherlink.com 1.10,2013-07-16 08:02:00,
2013-07-16 04:17:00,69.9,69.0,30.22,West,262,0.0,1.0,96,0.00,,,0.00,weatherlink.com 1.10,2013-07-16 08:17:00,
2013-07-16 04:32:00,69.7,69.0,30.22,NNW,336,1.0,1.0,96,0.00,,,0.00,weatherlink.com 1.10,2013-07-16 08:32:00,
2013-07-16 04:47:00,69.6,69.0,30.22,WNW,294,0.0,1.0,97,0.00,,,0.00,weatherlink.com 1.10,2013-07-16 08:47:00,
2013-07-16 05:02:00,69.4,69.0,30.23,WNW,284,0.0,0.0,97,0.00,,,0.00,weatherlink.com 1.10,2013-07-16 09:02:00,
2013-07-16 05:17:00,69.0,68.0,30.23,West,259,0.0,1.0,96,0.00,,,0.00,weatherlink.com 1.10,2013-07-16 09:17:00,
2013-07-16 05:32:00,68.9,68.0,30.23,WNW,283,0.0,1.0,97,0.00,,,0.00,weatherlink.com 1.10,2013-07-16 09:32:00,
2013-07-16 05:47:00,68.7,68.0,30.24,WSW,253,0.0,1.0,97,0.00,,,0.00,weatherlink.com 1.10,2013-07-16 09:47:00,
2013-07-16 06:02:00,68.7,68.0,30.24,West,276,0.0,1.0,96,0.00,,,0.00,weatherlink.com 1.10,2013-07-16 10:02:00,
2013-07-16 06:17:00,68.6,68.0,30.24,WNW,293,0.0,1.0,97,0.00,,,0.00,weatherlink.com 1.10,2013-07-16 10:17:00,
2013-07-16 06:32:00,69.1,68.0,30.24,WNW,295,0.0,0.0,96,0.00,,,0.00,weatherlink.com 1.10,2013-07-16 10:32:00,
2013-07-16 06:47:00,70.2,69.0,30.24,WNW,290,0.0,1.0,94,0.00,,,0.00,weatherlink.com 1.10,2013-07-16 10:47:00,
2013-07-16 07:02:00,71.0,69.0,30.24,West,280,1.0,2.0,93,0.00,,,0.00,weatherlink.com 1.10,2013-07-16 11:02:00,
2013-07-16 07:17:00,72.7,70.0,30.24,NNE,26,2.0,2.0,91,0.00,,,0.00,weatherlink.com 1.10,2013-07-16 11:17:00,
2013-07-16 07:32:00,72.4,70.0,30.25,ENE,75,1.0,2.0,91,0.00,,,0.00,weatherlink.com 1.10,2013-07-16 11:32:00,
2013-07-16 07:47:00,74.8,71.0,30.25,ENE,63,0.0,1.0,87,0.00,,,0.00,weatherlink.com 1.10,2013-07-16 11:47:00,
2013-07-16 08:02:00,75.4,71.0,30.25,NNE,26,0.0,2.0,86,0.00,,,0.00,weatherlink.com 1.10,2013-07-16 12:02:00,
2013-07-16 08:17:00,76.5,72.0,30.25,ESE,113,0.0,1.0,86,0.00,,,0.00,weatherlink.com 1.10,2013-07-16 12:17:00,
2013-07-16 08:33:00,78.4,72.0,30.25,West,263,0.0,2.0,81,0.00,,,0.00,weatherlink.com 1.10,2013-07-16 12:33:00,
2013-07-16 08:48:00,80.3,73.0,30.25,WSW,250,0.0,1.0,77,0.00,,,0.00,weatherlink.com 1.10,2013-07-16 12:48:00,
2013-07-16 09:03:00,81.6,73.0,30.25,ESE,119,0.0,1.0,76,0.00,,,0.00,weatherlink.com 1.10,2013-07-16 13:03:00,
2013-07-16 09:25:00,81.7,72.0,30.25,ENE,58,1.0,2.0,73,0.00,,,0.00,weatherlink.com 1.10,2013-07-16 13:25:00,
2013-07-16 09:33:00,82.2,72.0,30.25,NE,53,2.0,3.0,72,0.00,,,0.00,weatherlink.com 1.10,2013-07-16 13:33:00,
2013-07-16 09:48:00,82.9,72.0,30.24,ESE,103,2.0,3.0,70,0.00,,,0.00,weatherlink.com 1.10,2013-07-16 13:48:00,
2013-07-16 10:03:00,83.1,71.0,30.24,ENE,63,2.0,5.0,67,0.00,,,0.00,weatherlink.com 1.10,2013-07-16 14:03:00,
2013-07-16 10:18:00,83.5,72.0,30.24,ENE,70,4.0,6.0,68,0.00,,,0.00,weatherlink.com 1.10,2013-07-16 14:18:00,
2013-07-16 10:33:00,84.0,72.0,30.24,East,80,3.0,6.0,68,0.00,,,0.00,weatherlink.com 1.10,2013-07-16 14:33:00,
2013-07-16 10:48:00,84.5,73.0,30.24,ENE,77,2.0,6.0,68,0.00,,,0.00,weatherlink.com 1.10,2013-07-16 14:48:00,
2013-07-16 11:03:00,85.6,73.0,30.24,NE,53,13.0,15.0,67,0.00,,,0.00,weatherlink.com 1.10,2013-07-16 15:03:00,
2013-07-16 11:18:00,85.6,73.0,30.24,NNE,32,8.0,12.0,67,0.00,,,0.00,weatherlink.com 1.10,2013-07-16 15:18:00,
2013-07-16 11:33:00,85.3,72.0,30.23,NNE,29,9.0,14.0,65,0.00,,,0.00,weatherlink.com 1.10,2013-07-16 15:33:00,
2013-07-16 11:48:00,85.8,73.0,30.23,NNE,25,11.0,13.0,65,0.00,,,0.00,weatherlink.com 1.10,2013-07-16 15:48:00,
2013-07-16 12:03:00,86.7,74.0,30.22,ENE,74,4.0,11.0,65,0.00,,,0.00,weatherlink.com 1.10,2013-07-16 16:03:00,
2013-07-16 12:18:00,86.3,73.0,30.22,ENE,58,12.0,14.0,65,0.00,,,0.00,weatherlink.com 1.10,2013-07-16 16:18:00,
2013-07-16 12:33:00,86.6,73.0,30.22,NE,46,7.0,11.0,65,0.00,,,0.00,weatherlink.com 1.10,2013-07-16 16:33:00,
2013-07-16 12:48:00,87.2,72.0,30.21,ENE,71,8.0,13.0,61,0.00,,,0.00,weatherlink.com 1.10,2013-07-16 16:48:00,
2013-07-16 13:03:00,87.6,72.0,30.21,NE,37,7.0,13.0,61,0.00,,,0.00,weatherlink.com 1.10,2013-07-16 17:03:00,
2013-07-16 13:18:00,87.8,73.0,30.21,NNE,25,8.0,12.0,62,0.00,,,0.00,weatherlink.com 1.10,2013-07-16 17:18:00,
2013-07-16 13:33:00,87.6,73.0,30.20,NNE,25,10.0,13.0,62,0.00,,,0.00,weatherlink.com 1.10,2013-07-16 17:33:00,
2013-07-16 13:48:00,88.0,73.0,30.20,NE,41,6.0,11.0,61,0.00,,,0.00,weatherlink.com 1.10,2013-07-16 17:48:00,
2013-07-16 14:03:00,87.8,74.0,30.20,East,80,4.0,14.0,64,0.00,,,0.00,weatherlink.com 1.10,2013-07-16 18:03:00,
2013-07-16 14:18:00,87.9,73.0,30.19,ENE,70,5.0,9.0,61,0.00,,,0.00,weatherlink.com 1.10,2013-07-16 18:18:00,
2013-07-16 14:33:00,90.2,73.0,30.19,North,356,6.0,12.0,57,0.00,,,0.00,weatherlink.com 1.10,2013-07-16 18:33:00,
2013-07-16 14:48:00,89.1,74.0,30.18,NE,40,9.0,12.0,62,0.00,,,0.00,weatherlink.com 1.10,2013-07-16 18:48:00,
2013-07-16 15:03:00,89.0,72.0,30.18,NE,53,7.0,14.0,58,0.00,,,0.00,weatherlink.com 1.10,2013-07-16 19:03:00,
2013-07-16 15:18:00,89.3,72.0,30.18,NE,37,5.0,10.0,57,0.00,,,0.00,weatherlink.com 1.10,2013-07-16 19:18:00,
2013-07-16 15:34:00,89.3,72.0,30.17,ENE,63,12.0,12.0,56,0.00,,,0.00,weatherlink.com 1.10,2013-07-16 19:34:00,
2013-07-16 15:49:00,89.8,72.0,30.17,NE,53,8.0,9.0,56,0.00,,,0.00,weatherlink.com 1.10,2013-07-16 19:49:00,
2013-07-16 16:04:00,89.4,73.0,30.16,NE,49,8.0,10.0,58,0.00,,,0.00,weatherlink.com 1.10,2013-07-16 20:04:00,
2013-07-16 16:19:00,89.9,73.0,30.16,NNE,29,4.0,9.0,58,0.00,,,0.00,weatherlink.com 1.10,2013-07-16 20:19:00,
2013-07-16 16:34:00,89.9,72.0,30.16,East,86,4.0,9.0,55,0.00,,,0.00,weatherlink.com 1.10,2013-07-16 20:34:00,
2013-07-16 16:49:00,89.9,72.0,30.16,ENE,75,5.0,10.0,56,0.00,,,0.00,weatherlink.com 1.10,2013-07-16 20:49:00,
2013-07-16 17:04:00,89.6,74.0,30.15,ENE,78,4.0,9.0,60,0.00,,,0.00,weatherlink.com 1.10,2013-07-16 21:04:00,
2013-07-16 17:19:00,90.0,72.0,30.15,East,84,7.0,7.0,56,0.00,,,0.00,weatherlink.com 1.10,2013-07-16 21:19:00,
2013-07-16 17:34:00,89.7,72.0,30.15,East,94,5.0,9.0,56,0.00,,,0.00,weatherlink.com 1.10,2013-07-16 21:34:00,
2013-07-16 17:49:00,89.6,73.0,30.15,ENE,63,5.0,7.0,59,0.00,,,0.00,weatherlink.com 1.10,2013-07-16 21:49:00,
2013-07-16 18:04:00,89.7,72.0,30.15,East,94,4.0,6.0,57,0.00,,,0.00,weatherlink.com 1.10,2013-07-16 22:04:00,
2013-07-16 18:19:00,89.7,72.0,30.15,NE,34,6.0,7.0,57,0.00,,,0.00,weatherlink.com 1.10,2013-07-16 22:19:00,
2013-07-16 18:34:00,89.6,72.0,30.15,NNE,15,3.0,5.0,57,0.00,,,0.00,weatherlink.com 1.10,2013-07-16 22:34:00,
2013-07-16 18:49:00,89.1,74.0,30.16,NNE,25,3.0,4.0,61,0.00,,,0.00,weatherlink.com 1.10,2013-07-16 22:49:00,
2013-07-16 19:04:00,88.3,73.0,30.16,NE,39,2.0,4.0,60,0.00,,,0.00,weatherlink.com 1.10,2013-07-16 23:04:00,
2013-07-16 19:19:00,87.0,73.0,30.16,NNE,18,2.0,3.0,63,0.00,,,0.00,weatherlink.com 1.10,2013-07-16 23:19:00,
2013-07-16 19:34:00,86.6,74.0,30.17,WSW,249,1.0,2.0,67,0.00,,,0.00,weatherlink.com 1.10,2013-07-16 23:34:00,
2013-07-16 19:49:00,84.8,75.0,30.17,WSW,253,0.0,4.0,73,0.00,,,0.00,weatherlink.com 1.10,2013-07-16 23:49:00,
2013-07-16 20:04:00,83.9,75.0,30.18,NW,320,3.0,7.0,75,0.00,,,0.00,weatherlink.com 1.10,2013-07-17 00:04:00,
2013-07-16 20:19:00,82.8,73.0,30.19,West,259,4.0,12.0,72,0.00,,,0.00,weatherlink.com 1.10,2013-07-17 00:19:00,
2013-07-16 20:34:00,81.2,72.0,30.18,West,280,2.0,8.0,74,0.00,,,0.00,weatherlink.com 1.10,2013-07-17 00:34:00,
2013-07-16 20:49:00,80.3,72.0,30.17,West,276,1.0,3.0,75,0.00,,,0.00,weatherlink.com 1.10,2013-07-17 00:49:00,
2013-07-16 21:05:00,79.1,70.0,30.17,SSW,211,0.0,3.0,74,0.00,,,0.00,weatherlink.com 1.10,2013-07-17 01:05:00,
2013-07-16 21:19:00,78.1,70.0,30.17,West,266,0.0,2.0,75,0.00,,,0.00,weatherlink.com 1.10,2013-07-17 01:19:00,
2013-07-16 21:34:00,77.5,69.0,30.18,WSW,242,0.0,1.0,76,0.00,,,0.00,weatherlink.com 1.10,2013-07-17 01:34:00,
2013-07-16 21:49:00,76.5,71.0,30.19,WSW,256,0.0,3.0,82,0.00,,,0.00,weatherlink.com 1.10,2013-07-17 01:49:00,
2013-07-16 22:04:00,76.1,71.0,30.20,WSW,250,0.0,3.0,83,0.00,,,0.00,weatherlink.com 1.10,2013-07-17 02:04:00,
2013-07-16 22:20:00,76.1,71.0,30.20,NNW,328,1.0,1.0,84,0.00,,,0.00,weatherlink.com 1.10,2013-07-17 02:20:00,
2013-07-16 22:34:00,76.0,72.0,30.20,SSW,197,0.0,3.0,86,0.00,,,0.00,weatherlink.com 1.10,2013-07-17 02:34:00,
2013-07-16 22:49:00,76.1,72.0,30.20,WNW,288,0.0,4.0,86,0.00,,,0.00,weatherlink.com 1.10,2013-07-17 02:49:00,
2013-07-16 23:04:00,75.9,72.0,30.20,SSE,159,1.0,2.0,88,0.00,,,0.00,weatherlink.com 1.10,2013-07-17 03:04:00,
2013-07-16 23:19:00,75.7,72.0,30.20,WNW,283,0.0,1.0,89,0.00,,,0.00,weatherlink.com 1.10,2013-07-17 03:19:00,
2013-07-16 23:34:00,75.3,72.0,30.21,NNE,23,1.0,3.0,90,0.00,,,0.00,weatherlink.com 1.10,2013-07-17 03:34:00,
2013-07-16 23:49:00,74.9,72.0,30.21,SW,224,0.0,2.0,91,0.00,,,0.00,weatherlink.com 1.10,2013-07-17 03:49:00,